• In Austria
  • List of Countries
  • For 7 days
  • Water Temperature
  • Satellite Maps
  • Weather Map
  • News
  • Weather Widgets
  • user-avatar
    Login

    Hourly Weather Río Gallegos

    Today, 18 February, Sunday

    Time Temperature Precipitation Wind Pressure Humidity
    00:00 +13°C° 0.1 mm 3 mps 740 mmHg 92%
    01:00 +14°C° 0 mm 3 mps 740 mmHg 91%
    02:00 +14°C° 0 mm 4 mps 740 mmHg 88%
    03:00 +14°C° 0 mm 5 mps 740 mmHg 84%
    04:00 +14°C° 0 mm 6 mps 741 mmHg 80%
    05:00 +15°C° 0 mm 7 mps 741 mmHg 74%
    06:00 +15°C° 0 mm 8 mps 741 mmHg 67%
    07:00 +16°C° 0 mm 8 mps 741 mmHg 60%
    08:00 +17°C° 0.1 mm 8 mps 741 mmHg 55%
    09:00 +20°C° 0.1 mm 8 mps 741 mmHg 51%
    10:00 +21°C° 0.1 mm 8 mps 741 mmHg 47%
    11:00 +20°C° 0.9 mm 8 mps 741 mmHg 50%
    12:00 +18°C° 0.9 mm 7 mps 741 mmHg 53%
    13:00 +18°C° 0.9 mm 7 mps 742 mmHg 57%
    14:00 +17°C° 0.9 mm 7 mps 742 mmHg 57%
    15:00 +17°C° 0.9 mm 7 mps 742 mmHg 58%
    16:00 +16°C° 0.9 mm 7 mps 742 mmHg 58%
    17:00 +16°C° 0 mm 7 mps 743 mmHg 60%
    18:00 +15°C° 0 mm 7 mps 744 mmHg 61%
    19:00 +15°C° 0 mm 7 mps 744 mmHg 62%
    20:00 +13°C° 0.1 mm 8 mps 745 mmHg 64%
    21:00 +12°C° 0.1 mm 9 mps 746 mmHg 66%
    22:00 +11°C° 0.1 mm 10 mps 747 mmHg 68%
    23:00 +9°C° 0 mm 10 mps 748 mmHg 67%

    Tomorrow, 19 February, Monday

    Time Temperature Precipitation Wind Pressure Humidity
    00:00 +8°C° 0 mm 11 mps 748 mmHg 65%
    01:00 +7°C° 0 mm 11 mps 749 mmHg 64%
    02:00 +7°C° 0 mm 10 mps 749 mmHg 66%
    03:00 +7°C° 0 mm 9 mps 750 mmHg 67%
    04:00 +7°C° 0 mm 8 mps 750 mmHg 69%
    05:00 +7°C° 0 mm 8 mps 750 mmHg 67%
    06:00 +9°C° 0 mm 8 mps 751 mmHg 64%
    07:00 +10°C° 0 mm 8 mps 751 mmHg 62%
    08:00 +11°C° 0 mm 7 mps 751 mmHg 57%
    09:00 +13°C° 0 mm 6 mps 751 mmHg 52%
    10:00 +14°C° 0 mm 6 mps 751 mmHg 47%
    11:00 +15°C° 0 mm 5 mps 751 mmHg 46%
    12:00 +15°C° 0 mm 5 mps 751 mmHg 44%
    13:00 +15°C° 0 mm 5 mps 751 mmHg 43%
    14:00 +15°C° 0 mm 5 mps 751 mmHg 44%
    15:00 +15°C° 0 mm 5 mps 750 mmHg 46%
    16:00 +15°C° 0 mm 5 mps 750 mmHg 47%
    17:00 +14°C° 0.3 mm 5 mps 750 mmHg 53%
    18:00 +14°C° 0.3 mm 5 mps 750 mmHg 59%
    19:00 +13°C° 0.3 mm 5 mps 750 mmHg 66%
    20:00 +12°C° 0.6 mm 5 mps 750 mmHg 69%
    21:00 +12°C° 0.6 mm 5 mps 750 mmHg 73%
    22:00 +12°C° 0.6 mm 5 mps 750 mmHg 77%
    23:00 +12°C° 0.2 mm 4 mps 750 mmHg 77%

    Day after tomorrow, 20 February, Tuesday

    Time Temperature Precipitation Wind Pressure Humidity
    00:00 +11°C° 0.2 mm 4 mps 750 mmHg 78%
    01:00 +11°C° 0.2 mm 4 mps 749 mmHg 79%
    02:00 +11°C° 0 mm 4 mps 749 mmHg 80%
    03:00 +10°C° 0 mm 5 mps 750 mmHg 81%
    04:00 +10°C° 0 mm 5 mps 750 mmHg 82%
    05:00 +10°C° 0 mm 6 mps 750 mmHg 73%
    06:00 +11°C° 0 mm 6 mps 751 mmHg 65%
    07:00 +12°C° 0 mm 7 mps 751 mmHg 57%
    08:00 +13°C° 0 mm 8 mps 752 mmHg 52%
    09:00 +15°C° 0 mm 8 mps 752 mmHg 48%
    10:00 +16°C° 0 mm 9 mps 753 mmHg 43%
    11:00 +16°C° 0 mm 9 mps 753 mmHg 43%
    12:00 +16°C° 0 mm 8 mps 753 mmHg 44%
    13:00 +16°C° 0 mm 8 mps 754 mmHg 44%
    14:00 +16°C° 0 mm 7 mps 754 mmHg 47%
    15:00 +15°C° 0 mm 6 mps 754 mmHg 50%
    16:00 +15°C° 0 mm 5 mps 754 mmHg 53%
    17:00 +14°C° 0 mm 5 mps 754 mmHg 55%
    18:00 +14°C° 0 mm 5 mps 754 mmHg 58%
    19:00 +14°C° 0 mm 4 mps 755 mmHg 60%
    20:00 +13°C° 0 mm 5 mps 754 mmHg 63%
    21:00 +13°C° 0 mm 5 mps 754 mmHg 67%
    22:00 +11°C° 0 mm 6 mps 754 mmHg 70%
    23:00 +11°C° 0 mm 6 mps 753 mmHg 72%

    21 February, Wednesday

    Time Temperature Precipitation Wind Pressure Humidity
    00:00 +11°C° 0 mm 7 mps 752 mmHg 75%
    01:00 +11°C° 0 mm 8 mps 751 mmHg 77%
    02:00 +11°C° 0 mm 8 mps 749 mmHg 71%
    03:00 +12°C° 0 mm 9 mps 748 mmHg 64%
    04:00 +12°C° 0 mm 9 mps 747 mmHg 57%
    05:00 +12°C° 0.3 mm 9 mps 746 mmHg 59%
    06:00 +12°C° 0.3 mm 9 mps 745 mmHg 61%
    07:00 +12°C° 0.3 mm 9 mps 745 mmHg 63%
    08:00 +14°C° 0 mm 10 mps 744 mmHg 55%
    09:00 +18°C° 0 mm 12 mps 743 mmHg 48%
    10:00 +20°C° 0 mm 13 mps 742 mmHg 40%
    11:00 +20°C° 0 mm 14 mps 741 mmHg 37%
    12:00 +20°C° 0 mm 15 mps 740 mmHg 33%
    13:00 +20°C° 0 mm 16 mps 740 mmHg 30%
    14:00 +18°C° 0 mm 17 mps 741 mmHg 38%
    15:00 +15°C° 0 mm 18 mps 743 mmHg 46%
    16:00 +11°C° 0 mm 19 mps 744 mmHg 54%
    17:00 +10°C° 0 mm 18 mps 746 mmHg 53%
    18:00 +9°C° 0 mm 17 mps 748 mmHg 52%
    19:00 +7°C° 0 mm 16 mps 750 mmHg 51%
    20:00 +8°C° 0 mm 15 mps 751 mmHg 53%
    21:00 +8°C° 0 mm 14 mps 752 mmHg 56%
    22:00 +7°C° 0 mm 13 mps 753 mmHg 58%
    23:00 +7°C° 0 mm 11 mps 754 mmHg 60%

    22 February, Thursday

    Time Temperature Precipitation Wind Pressure Humidity
    00:00 +7°C° 0 mm 10 mps 755 mmHg 62%
    01:00 +7°C° 0 mm 9 mps 756 mmHg 64%
    02:00 +7°C° 0 mm 9 mps 756 mmHg 64%
    03:00 +6°C° 0 mm 8 mps 757 mmHg 64%
    04:00 +6°C° 0 mm 8 mps 758 mmHg 64%
    05:00 +7°C° 0 mm 8 mps 758 mmHg 61%
    06:00 +9°C° 0 mm 8 mps 759 mmHg 58%
    07:00 +9°C° 0 mm 8 mps 759 mmHg 55%
    08:00 +11°C° 0 mm 8 mps 759 mmHg 51%
    09:00 +12°C° 0 mm 8 mps 760 mmHg 47%
    10:00 +15°C° 0 mm 7 mps 760 mmHg 43%
    11:00 +16°C° 0 mm 7 mps 760 mmHg 40%
    12:00 +17°C° 0 mm 7 mps 760 mmHg 38%
    13:00 +18°C° 0 mm 7 mps 759 mmHg 35%
    14:00 +18°C° 0 mm 7 mps 759 mmHg 36%
    15:00 +19°C° 0 mm 6 mps 760 mmHg 37%
    16:00 +19°C° 0 mm 6 mps 760 mmHg 39%
    17:00 +17°C° 0 mm 5 mps 760 mmHg 45%
    18:00 +15°C° 0 mm 5 mps 760 mmHg 51%
    19:00 +14°C° 0 mm 4 mps 761 mmHg 57%
    20:00 +14°C° 0 mm 3 mps 761 mmHg 59%
    21:00 +13°C° 0 mm 3 mps 761 mmHg 61%
    22:00 +14°C° 0 mm 2 mps 761 mmHg 63%
    23:00 +14°C° 0 mm 2 mps 761 mmHg 64%

    23 February, Friday

    Time Temperature Precipitation Wind Pressure Humidity
    00:00 +13°C° 0 mm 2 mps 761 mmHg 65%
    01:00 +13°C° 0 mm 1 mps 761 mmHg 66%
    02:00 +13°C° 0 mm 2 mps 760 mmHg 65%
    03:00 +13°C° 0 mm 2 mps 760 mmHg 65%
    04:00 +13°C° 0 mm 2 mps 760 mmHg 64%
    05:00 +13°C° 0 mm 2 mps 760 mmHg 62%
    06:00 +14°C° 0 mm 2 mps 760 mmHg 59%
    07:00 +15°C° 0 mm 2 mps 760 mmHg 57%
    08:00 +16°C° 0 mm 3 mps 760 mmHg 53%
    09:00 +16°C° 0 mm 3 mps 760 mmHg 50%
    10:00 +17°C° 0 mm 4 mps 759 mmHg 47%
    11:00 +18°C° 0 mm 4 mps 759 mmHg 44%
    12:00 +19°C° 0 mm 4 mps 758 mmHg 42%
    13:00 +20°C° 0 mm 4 mps 758 mmHg 40%
    14:00 +21°C° 0 mm 4 mps 758 mmHg 39%
    15:00 +21°C° 0 mm 4 mps 757 mmHg 37%
    16:00 +22°C° 0 mm 5 mps 757 mmHg 36%
    17:00 +20°C° 0 mm 4 mps 757 mmHg 41%
    18:00 +19°C° 0 mm 4 mps 757 mmHg 46%
    19:00 +18°C° 0 mm 3 mps 757 mmHg 51%
    20:00 +17°C° 0 mm 3 mps 757 mmHg 53%
    21:00 +17°C° 0 mm 2 mps 757 mmHg 56%
    22:00 +16°C° 0 mm 2 mps 757 mmHg 59%
    23:00 +16°C° 0 mm 2 mps 757 mmHg 58%
    Show more